STARLINK R (59937 NORAD) Tracking and Keplerian Element Data

This shows tracking and keplerian element data for the satellite.

Feedback or suggestion? Click here.




ElementValue
Catalog59937
NameSTARLINK R
Epoch Orbit233
Epoch Day160.16667824
Epoch Year2024
RAAN22.4083
Inclination43.0022
Eccentricity0.0002002
Argument of Perigee279.705
Mean Anonmoly171.9991
Mean Motion15.93271129
Decay Rate-0.01044392
L11 59937U 24106R 24160.16667824 -.01044392 33124-3 -28382-2 0 9995
L22 59937 43.0022 22.4083 0002002 279.7050 171.9991 15.93271129 2334



Live tracking and technical data element details for STARLINK R (NORAD 59937). STARLINK R can be tracked NOW for your location showing map with azimuth and elevation plus other details from your city location.







IsCatalogInMostPopularTable: catalog: 59937, numindb: 7
Update: records affected: 1



GetName: 59937 STARLINK R

Hit Count: updated at: Tue, 16 Jul 2024 03:30:37 GMT